FW8786 Weather Reports


time (UTC)temp
F
wind
direction
speed
knots
gust
knots
rain 1hr
in
rain 24hr
in
rain mn
in
humidity
%
barometer
mb
20260906040044 88 0 0.0 3.5 0.00 0.00 0.00 70 1013.8
20260906034542 88 0 0.0 2.6 0.00 0.00 0.00 69 1013.7
20260906033104 88 73 0.0 3.5 0.00 0.00 0.00 68 1013.6
20260906031543 89 0 0.0 3.5 0.00 0.00 0.00 66 1013.5
20260906030046 88 0 0.0 5.2 0.00 0.00 0.00 65 1013.4
20260906024551 88 63 0.0 2.6 0.00 0.00 0.00 64 1013.2
20260906023051 87 0 0.0 3.5 0.00 0.00 0.00 64 1013.1
20260906021548 87 0 0.0 0.0 0.00 0.00 0.00 63 1013.0
20260906020103 88 0 0.0 0.0 0.00 0.00 0.00 62 1012.7
20260906014543 89 0 0.0 0.0 0.00 0.00 0.00 62 1012.7
20260906013050 89 0 0.0 0.0 0.00 0.00 0.00 60 1012.5
20260906011557 90 0 0.0 0.0 0.00 0.00 0.00 58 1012.2
20260906010044 91 0 0.0 0.0 0.00 0.00 0.00 57 1012.1
20260906004544 93 0 0.0 0.0 0.00 0.00 0.00 56 1012.1
20260906003043 94 0 0.0 1.7 0.00 0.00 0.00 54 1011.9
20260906001543 94 0 0.0 0.9 0.00 0.00 0.00 53 1012.0
20260906000055 95 0 0.0 0.9 0.00 0.00 0.00 52 1011.9
20260905234545 95 0 0.0 3.5 0.00 0.00 0.00 51 1012.1
20260905233053 96 0 0.0 4.3 0.00 0.00 0.00 50 1012.3
20260905231549 96 0 0.0 3.5 0.00 0.00 0.00 50 1012.2
20260905230054 97 0 0.0 3.5 0.00 0.00 0.00 48 1012.1
20260905224549 97 0 0.0 3.5 0.00 0.00 0.00 48 1012.0
20260905223049 97 276 0.9 5.2 0.00 0.00 0.00 48 1012.0
20260905221544 97 5 0.9 3.5 0.00 0.00 0.00 48 1012.0
20260905220043 98 0 0.9 3.5 0.00 0.00 0.00 48 1012.0
20260905214541 98 0 0.0 2.6 0.00 0.00 0.00 50 1012.0
20260905213049 98 304 0.0 6.1 0.00 0.00 0.00 48 1012.0
20260905211552 98 277 0.9 3.5 0.00 0.00 0.00 47 1012.1
20260905210047 100 300 0.9 7.8 0.00 0.00 0.00 45 1012.1
20260905204545 100 0 0.0 5.2 0.00 0.00 0.00 43 1012.2
20260905203048 100 30 1.7 8.7 0.00 0.00 0.00 42 1012.4
20260905201544 100 0 0.0 4.3 0.00 0.00 0.00 42 1012.5
20260905200042 100 5 1.7 7.8 0.00 0.00 0.00 43 1012.5
20260905194557 99 71 0.0 3.5 0.00 0.00 0.00 45 1012.7
20260905193044 100 321 0.9 7.8 0.00 0.00 0.00 43 1013.2
20260905191547 100 0 0.0 6.1 0.00 0.00 0.00 44 1013.1
20260905190043 101 315 1.7 4.3 0.00 0.00 0.00 42 1013.2
20260905184611 101 290 0.0 5.2 0.00 0.00 0.00 43 1013.4
20260905183052 101 188 0.9 7.0 0.00 0.00 0.00 46 1013.5
20260905181552 100 323 0.9 6.1 0.00 0.00 0.00 48 1013.6
20260905180048 100 205 0.9 3.5 0.00 0.00 0.00 48 1013.7
20260905174549 99 209 0.0 4.3 0.00 0.00 0.00 48 1013.8
20260905173047 99 244 0.9 5.2 0.00 0.00 0.00 48 1014.0
20260905171544 97 277 0.9 5.2 0.00 0.00 0.00 52 1014.4
20260905170043 98 246 0.9 5.2 0.00 0.00 0.00 50 1014.4
20260905164551 98 259 0.9 5.2 0.00 0.00 0.00 50 1014.5
20260905163048 98 93 0.9 4.3 0.00 0.00 0.00 52 1014.7
20260905161547 96 0 0.0 2.6 0.00 0.00 0.00 54 1014.7
20260905160047 96 0 0.0 2.6 0.00 0.00 0.00 55 1014.7
20260905154610 94 0 0.0 2.6 0.00 0.00 0.00 58 1014.9
20260905153049 93 0 0.0 3.5 0.00 0.00 0.00 59 1015.0
20260905151545 93 0 0.9 3.5 0.00 0.00 0.00 59 1015.0
20260905150041 90 0 0.0 2.6 0.00 0.00 0.00 64 1014.9
20260905144548 89 0 0.0 1.7 0.00 0.00 0.00 69 1014.8
20260905143049 87 276 0.0 2.6 0.00 0.00 0.00 69 1014.7
20260905141543 87 0 0.0 0.9 0.00 0.00 0.00 70 1014.7
20260905140045 86 0 0.9 2.6 0.00 0.00 0.00 70 1014.6
20260905134549 85 0 0.0 1.7 0.00 0.00 0.00 73 1014.6
20260905133049 82 273 0.0 1.7 0.00 0.00 0.00 77 1014.5
20260905131546 81 0 0.0 0.9 0.00 0.00 0.00 81 1014.4
20260905130047 79 0 0.0 1.7 0.00 0.00 0.00 84 1014.4
20260905124550 77 0 0.0 0.0 0.00 0.00 0.00 88 1014.4
20260905123045 77 0 0.0 0.0 0.00 0.00 0.00 89 1014.2
20260905121544 76 0 0.0 0.9 0.00 0.00 0.00 89 1014.1
20260905120049 76 0 0.0 0.0 0.00 0.00 0.00 89 1014.0
20260905114546 76 0 0.0 0.0 0.00 0.00 0.00 89 1013.9
20260905113049 76 0 0.0 0.0 0.00 0.00 0.00 88 1013.7
20260905111612 76 0 0.0 0.0 0.00 0.00 0.00 88 1013.7
20260905110047 77 0 0.0 0.0 0.00 0.00 0.00 88 1013.5
20260905104546 77 0 0.0 0.0 0.00 0.00 0.00 87 1013.6
20260905103043 77 0 0.0 0.0 0.00 0.00 0.00 87 1013.6
20260905101550 77 0 0.0 0.0 0.00 0.00 0.00 86 1013.6
20260905100052 77 0 0.0 0.0 0.00 0.00 0.00 86 1013.7
20260905094550 78 0 0.0 0.0 0.00 0.00 0.00 86 1013.5
20260905093042 78 0 0.0 0.0 0.00 0.00 0.00 85 1013.6
20260905091541 78 0 0.0 0.0 0.00 0.00 0.00 84 1013.6
20260905090048 78 0 0.0 0.0 0.00 0.00 0.00 84 1013.6
20260905084553 79 0 0.0 0.0 0.00 0.00 0.00 83 1013.5
20260905083042 79 0 0.0 0.0 0.00 0.00 0.00 83 1013.6
20260905081549 79 0 0.0 0.0 0.00 0.00 0.00 82 1013.7
20260905080057 79 0 0.0 0.0 0.00 0.00 0.00 82 1013.8
20260905074548 79 0 0.0 0.0 0.00 0.00 0.00 81 1014.0
20260905073047 80 0 0.0 0.0 0.00 0.00 0.00 81 1013.9
20260905071550 80 0 0.0 0.0 0.00 0.00 0.00 81 1013.9
20260905070049 80 0 0.0 0.0 0.00 0.00 0.00 81 1014.1
20260905064546 80 0 0.0 0.0 0.00 0.00 0.00 80 1014.0
20260905063042 80 0 0.0 0.0 0.00 0.00 0.00 79 1014.0
20260905061552 80 0 0.0 0.0 0.00 0.00 0.00 79 1014.1
20260905060049 81 0 0.0 0.0 0.00 0.00 0.00 78 1014.1
20260905054548 81 0 0.0 0.0 0.00 0.00 0.00 78 1014.1
20260905053043 81 0 0.0 0.0 0.00 0.00 0.00 78 1014.2
20260905051544 81 0 0.0 0.0 0.00 0.00 0.00 78 1014.2
20260905050049 82 0 0.0 0.0 0.00 0.00 0.00 77 1014.0
20260905044549 82 0 0.0 0.0 0.00 0.00 0.00 77 1014.1
20260905043053 82 0 0.0 0.0 0.00 0.00 0.00 77 1014.1
20260905041550 82 0 0.0 0.0 0.00 0.00 0.00 76 1013.9